TimeMDT,TemperatureF,Dew PointF,Humidity,Sea Level PressureIn,VisibilityMPH,Wind Direction,Wind SpeedMPH,Gust SpeedMPH,PrecipitationIn,Events,Conditions,WindDirDegrees,DateUTC
12:53 AM,42.1,27.0,55,29.86,10.0,SSE,3.5,-,N/A,,Clear,160,2013-10-02 06:53:00
1:53 AM,37.9,27.0,65,29.89,10.0,Calm,Calm,-,N/A,,Clear,0,2013-10-02 07:53:00
2:53 AM,34.0,27.0,75,29.89,10.0,SSW,5.8,-,N/A,,Clear,200,2013-10-02 08:53:00
3:53 AM,39.0,25.0,57,29.87,10.0,SSW,4.6,-,N/A,,Clear,200,2013-10-02 09:53:00
4:53 AM,37.0,24.1,59,29.88,10.0,SSW,8.1,-,N/A,,Clear,200,2013-10-02 10:53:00
5:53 AM,37.0,23.0,57,29.91,10.0,SSW,8.1,-,N/A,,Clear,210,2013-10-02 11:53:00
6:53 AM,36.0,23.0,59,29.94,10.0,SSW,9.2,-,N/A,,Clear,210,2013-10-02 12:53:00
7:53 AM,35.1,24.1,64,29.99,10.0,Calm,Calm,-,N/A,,Clear,0,2013-10-02 13:53:00
8:53 AM,46.9,24.1,41,29.96,10.0,South,4.6,-,N/A,,Clear,170,2013-10-02 14:53:00
9:53 AM,54.0,24.1,31,29.92,10.0,Calm,Calm,-,N/A,,Clear,0,2013-10-02 15:53:00
10:53 AM,60.1,21.9,23,29.88,10.0,North,5.8,-,N/A,,Clear,10,2013-10-02 16:53:00
11:53 AM,63.0,19.9,19,29.86,9.0,North,6.9,-,N/A,,Clear,350,2013-10-02 17:53:00
12:53 PM,66.0,21.0,18,29.81,10.0,NNE,6.9,-,N/A,,Clear,30,2013-10-02 18:53:00
1:53 PM,66.9,19.9,17,29.79,10.0,North,4.6,-,N/A,,Clear,350,2013-10-02 19:53:00
2:53 PM,66.9,21.0,17,29.78,10.0,NNW,3.5,-,N/A,,Clear,340,2013-10-02 20:53:00
3:53 PM,66.0,21.0,18,29.74,10.0,Variable,3.5,-,N/A,,Clear,0,2013-10-02 21:53:00
4:53 PM,64.9,18.0,16,29.75,10.0,SSW,8.1,-,N/A,,Clear,210,2013-10-02 22:53:00
5:53 PM,64.9,19.9,18,29.76,10.0,SW,4.6,-,N/A,,Clear,220,2013-10-02 23:53:00
6:53 PM,55.9,25.0,30,29.81,10.0,SSW,3.5,-,N/A,,Clear,200,2013-10-03 00:53:00
7:53 PM,48.0,28.9,48,29.87,10.0,SSW,8.1,-,N/A,,Clear,210,2013-10-03 01:53:00
8:53 PM,46.9,28.0,48,29.84,10.0,SSW,5.8,-,N/A,,Clear,200,2013-10-03 02:53:00
9:53 PM,43.0,28.9,58,29.81,10.0,South,6.9,-,N/A,,Clear,190,2013-10-03 03:53:00
10:53 PM,41.0,28.0,60,29.80,10.0,South,5.8,-,N/A,,Clear,180,2013-10-03 04:53:00
11:53 PM,42.1,27.0,55,29.77,10.0,South,4.6,-,N/A,,Clear,180,2013-10-03 05:53:00